Theta_e
324 322 321 320 321 325 326 326 328 329 331 332 330 328 325 323 324 333 338 338 341 339 340 345 343 344 345 345 350 349 348 349 347 347 347 348 349 349 350 348 348 348 348 352 352 351 352 352 353 354 353 353 354 353 355 357 361 361 360 360 361 361 359 358 360 360 359 358 358 358 358 357 358 358 357 357 357 357 358 360 362 362 362 363 363 358
324 320 320 323 324 326 327 327 329 330 332 332 329 326 324 325 326 334 338 337 340 338 337 344 343 343 345 344 347 349 349 349 347 348 348 348 349 349 351 351 350 350 348 350 351 351 351 352 354 356 355 355 355 354 356 358 360 361 361 360 362 361 360 359 359 360 359 358 357 357 357 356 355 356 357 357 358 358 357 359 363 365 362 364 364 359
321 319 321 325 325 325 326 328 328 330 331 330 329 324 321 325 329 333 336 338 339 336 336 343 340 341 345 344 346 348 349 350 349 348 349 348 350 351 351 351 352 352 351 350 350 350 351 352 354 355 356 356 356 356 357 358 360 361 362 360 361 362 361 360 359 360 360 358 357 357 357 356 354 353 355 355 356 357 356 357 363 366 365 366 365 362
314 319 324 325 325 325 326 327 328 329 329 330 327 321 318 327 327 322 330 338 340 337 338 342 339 339 346 346 345 347 348 350 349 348 349 348 350 351 350 351 352 353 354 352 350 350 351 352 354 355 357 357 357 358 357 359 361 363 364 362 361 362 362 361 359 360 360 359 359 358 358 357 355 353 354 354 354 355 355 357 361 365 366 366 364 364
318 322 325 324 324 325 325 326 328 325 324 328 329 323 321 329 328 324 331 339 339 338 341 340 331 332 342 346 346 346 348 351 350 349 350 349 350 351 350 351 352 352 354 353 351 351 352 352 354 355 357 358 357 358 359 361 362 364 365 363 362 362 362 362 361 361 361 360 361 360 360 359 357 356 355 355 355 355 356 356 358 360 361 360 359 360
324 325 325 323 324 324 324 325 327 324 320 321 328 330 328 331 332 331 336 335 327 326 336 337 322 323 337 344 346 347 347 350 351 352 351 350 351 352 352 352 353 353 353 353 353 352 353 354 355 356 358 359 359 359 360 361 363 364 365 365 363 363 363 362 362 362 362 361 362 362 362 360 359 359 357 357 356 355 355 354 353 354 356 357 356 355
325 326 325 324 323 324 324 323 326 327 318 315 324 332 332 334 332 331 331 326 318 320 335 339 325 320 329 337 346 347 347 349 350 352 352 351 352 351 352 353 352 353 352 353 354 353 354 354 355 355 358 359 359 359 360 361 362 363 364 366 365 365 364 363 363 363 363 363 363 363 362 360 360 359 359 359 358 355 353 352 351 351 353 355 355 353
327 326 324 324 324 322 321 320 325 327 318 315 327 333 332 332 331 330 329 322 321 326 333 337 331 322 320 330 345 346 345 349 350 352 352 351 352 351 352 352 352 353 352 353 355 355 355 355 355 355 357 359 359 359 359 360 362 363 364 366 366 366 365 363 363 364 365 364 363 363 362 361 360 359 359 359 359 357 354 352 351 351 352 354 355 353
329 327 323 324 322 321 321 322 325 327 322 322 331 331 331 333 331 331 328 322 325 325 320 325 329 324 319 329 344 346 342 345 347 351 353 351 352 352 352 352 352 353 353 352 355 356 356 355 355 354 355 358 359 358 359 359 361 362 365 366 367 367 364 364 363 363 365 364 363 363 362 361 360 359 357 356 357 357 356 354 353 354 353 354 355 354
329 326 325 324 322 321 322 325 326 326 325 326 329 330 331 332 332 332 329 321 322 320 315 319 323 322 320 324 334 339 336 340 346 347 351 352 352 352 353 353 353 354 354 353 354 357 357 356 355 354 355 357 358 359 358 359 360 362 365 367 368 368 365 364 365 364 365 365 364 363 362 362 361 360 359 356 355 356 357 356 355 356 355 354 353 354
328 327 326 325 323 324 324 325 325 325 326 327 327 328 327 329 332 330 328 322 318 316 317 319 321 322 320 321 328 335 336 342 347 347 349 352 350 351 352 351 351 353 355 354 354 356 358 357 355 354 355 357 358 358 357 358 360 361 365 368 369 369 366 365 365 365 365 365 364 363 363 362 362 361 360 359 356 356 357 357 356 355 354 353 351 351
328 326 326 326 324 324 324 323 325 325 325 326 327 326 320 320 324 320 319 319 316 314 317 320 323 321 316 320 331 340 343 344 346 346 346 348 348 350 349 348 351 352 353 355 355 355 358 358 356 354 355 357 358 358 356 358 360 361 364 368 369 369 368 366 366 367 365 364 364 363 362 363 363 362 361 361 359 357 357 357 356 354 352 350 349 349
325 326 326 326 325 325 323 320 321 323 325 325 323 319 313 312 315 314 313 314 314 314 317 321 323 319 317 325 336 343 342 342 345 345 343 343 346 349 350 350 353 352 350 353 355 355 357 358 356 355 355 357 359 358 356 358 360 362 364 367 370 369 369 368 367 367 367 365 364 364 363 363 363 363 362 362 360 358 357 357 355 353 350 350 349 349
318 324 326 326 325 325 323 318 315 317 321 322 318 313 312 312 314 315 314 313 313 313 317 321 322 317 317 328 341 343 340 341 342 342 342 342 343 345 350 354 353 351 349 351 355 355 357 358 357 356 356 358 360 359 356 358 360 361 365 367 370 371 371 370 368 368 368 367 365 364 364 363 363 364 363 362 361 359 358 357 356 353 351 350 349 350
313 316 322 324 324 324 325 321 318 320 321 322 323 320 314 313 314 314 313 313 313 313 314 319 320 316 316 328 341 341 340 341 340 341 342 341 341 342 348 353 352 348 346 351 357 357 355 358 357 357 357 358 360 359 357 357 359 361 364 367 370 371 372 371 370 369 368 368 367 365 365 364 363 363 364 363 361 359 358 357 356 354 353 351 350 350
312 313 323 326 325 325 323 323 325 323 319 321 326 321 314 316 318 314 313 314 313 313 313 315 317 320 326 336 342 340 340 340 339 340 340 340 340 340 343 351 352 349 347 352 357 358 356 357 358 358 357 357 359 359 357 357 359 361 363 367 370 371 373 372 371 370 369 369 368 367 366 365 364 364 364 364 362 361 360 358 357 356 354 352 351 350
311 314 327 328 325 327 324 323 325 321 316 320 320 315 318 327 324 313 312 315 314 312 314 314 314 321 327 333 339 341 340 340 341 339 338 339 340 339 339 345 349 350 351 354 358 359 358 357 359 359 357 357 358 359 359 359 360 361 362 367 371 371 372 373 372 371 370 370 369 368 368 366 365 365 364 363 363 362 360 359 358 357 356 355 353 350
317 314 326 329 325 326 325 324 325 324 322 319 314 316 323 326 323 318 313 314 314 313 314 312 312 315 316 321 335 342 340 340 341 338 338 339 338 338 339 340 344 349 353 357 358 360 360 358 359 361 358 358 360 361 362 361 362 362 363 367 371 371 372 373 372 371 370 370 369 369 369 367 365 365 365 364 363 362 361 360 360 358 357 356 353 350
323 313 321 330 326 326 328 324 320 322 325 321 319 323 322 314 313 315 312 312 314 314 314 313 312 313 313 318 331 339 339 341 341 339 339 337 337 338 340 343 348 351 353 357 357 359 360 359 360 361 360 359 361 363 363 363 365 364 364 368 369 370 371 372 371 371 371 371 369 369 369 368 367 366 365 364 363 363 362 361 360 359 357 356 353 350
327 316 315 326 328 326 326 322 315 316 322 323 322 326 323 316 313 314 313 314 313 313 314 313 312 312 317 327 334 338 340 341 340 341 339 336 337 339 338 342 346 349 353 356 357 359 359 359 360 361 360 360 362 363 364 365 365 365 365 367 368 369 370 371 371 371 372 371 369 369 369 369 368 367 366 365 364 364 363 362 361 359 357 356 354 351
328 321 313 321 327 322 319 321 318 317 319 318 315 316 318 319 318 316 315 314 313 312 313 315 313 313 323 335 338 339 340 339 339 341 340 337 336 337 339 341 342 348 354 357 357 358 358 359 360 362 361 359 361 364 364 364 364 363 363 366 367 369 369 369 370 371 371 371 370 369 369 369 369 368 367 366 365 365 364 363 362 360 358 356 354 352
325 322 315 315 317 314 317 324 325 323 323 320 315 314 315 317 315 313 313 313 313 312 312 315 312 314 327 338 337 338 338 337 339 339 338 337 337 337 339 338 340 347 354 357 357 356 358 359 359 361 362 359 360 363 363 362 363 361 361 364 366 367 368 367 369 370 371 371 370 370 369 369 370 369 368 367 366 366 365 363 362 360 359 357 355 354
327 325 318 313 315 319 323 326 325 324 326 324 322 321 321 319 314 309 308 311 313 313 313 314 312 317 332 339 336 338 339 337 338 338 337 336 336 338 337 337 345 354 357 356 353 354 357 359 360 362 363 361 360 363 363 361 361 360 360 362 364 365 365 365 367 370 371 370 370 371 370 369 370 370 368 367 366 366 364 362 361 360 359 357 356 354
328 324 317 314 320 324 326 327 326 326 325 321 321 324 322 320 319 316 316 316 314 312 312 314 311 317 332 340 337 338 338 336 337 337 337 338 336 337 337 339 349 359 361 357 353 354 356 357 363 365 366 366 365 363 363 362 361 360 360 362 363 363 364 363 364 368 371 372 371 371 370 369 369 370 368 367 367 365 363 360 360 360 359 357 356 354
323 322 319 315 316 318 319 321 321 321 322 320 321 325 324 323 323 321 320 320 315 311 313 314 311 316 331 341 338 337 337 336 335 336 337 338 337 337 338 341 350 360 365 361 356 357 355 359 367 370 371 372 367 364 365 363 361 361 361 362 361 362 363 363 363 367 370 371 370 370 371 370 369 370 368 367 366 364 362 359 359 360 359 358 356 353
323 326 322 315 314 314 313 314 315 316 319 320 322 323 324 324 322 318 315 313 312 313 315 313 311 318 334 339 336 336 338 337 338 337 335 337 337 337 339 347 356 365 368 364 360 359 361 367 371 372 374 372 366 365 366 365 363 362 362 362 360 361 363 363 362 366 370 371 369 369 371 370 369 369 369 368 365 363 361 359 359 360 359 359 357 353
328 330 327 321 317 316 316 318 324 324 319 316 318 320 322 324 323 320 313 309 312 314 313 315 318 319 328 335 336 336 337 337 339 337 335 338 337 337 348 360 364 368 368 364 361 361 365 370 371 370 371 370 366 365 366 366 364 363 364 363 361 361 363 364 364 365 370 371 369 369 370 371 370 369 369 368 365 362 360 359 360 360 358 358 356 353
330 325 326 328 324 324 325 326 328 328 321 317 319 319 321 323 323 319 313 313 318 313 309 319 326 319 322 334 337 336 336 338 338 338 336 338 338 335 350 366 368 367 367 364 362 363 365 368 370 370 369 369 368 366 367 367 365 365 365 364 362 362 364 365 365 366 370 371 369 370 371 371 371 370 369 367 365 362 360 360 360 360 359 357 354 353
330 322 325 327 324 327 330 328 329 328 325 325 323 321 322 322 321 317 315 319 322 313 311 322 327 322 325 333 334 335 338 337 336 338 336 336 338 336 342 358 365 364 365 363 362 364 365 367 370 371 370 369 369 368 368 368 366 366 367 366 364 362 364 366 367 367 371 372 371 371 371 372 372 370 368 366 365 363 362 361 361 360 359 357 354 352
328 325 330 328 323 326 328 329 330 327 324 324 324 326 326 325 323 321 320 323 323 319 320 325 326 326 330 332 332 334 336 337 336 338 336 335 338 338 336 345 355 358 361 364 365 365 366 368 371 372 371 371 369 369 370 369 368 368 367 367 365 362 364 367 368 369 371 371 372 372 372 373 372 370 368 366 365 364 363 362 361 360 359 357 355 352
326 326 334 332 322 322 327 330 329 326 324 321 322 327 327 325 325 323 322 324 322 321 323 325 323 325 329 332 334 334 336 337 337 336 338 337 337 338 336 337 342 344 346 356 363 366 366 369 372 373 372 371 370 371 371 370 370 369 368 368 366 365 365 368 370 371 371 372 373 373 373 372 371 369 368 365 365 364 363 362 360 360 359 357 356 353
328 327 331 331 320 319 326 328 327 326 324 318 318 323 324 323 323 323 324 326 323 320 322 320 317 321 329 332 332 333 335 335 335 335 337 339 338 337 337 335 338 338 339 347 362 369 368 369 372 374 372 370 371 371 371 371 371 369 369 370 368 367 367 370 372 372 372 374 374 373 372 371 370 369 366 365 364 362 361 361 360 360 359 356 356 353
330 328 327 327 321 319 325 327 325 324 321 316 318 322 325 326 325 324 326 328 327 325 322 318 319 326 331 330 329 332 333 333 336 335 336 341 342 339 338 337 336 337 338 344 356 365 368 367 369 372 373 371 372 371 370 371 372 370 370 371 370 368 368 371 373 373 374 374 373 373 372 370 369 368 366 364 363 360 360 359 359 360 358 356 355 351
329 330 329 328 321 318 323 326 325 321 317 319 325 328 328 328 327 326 326 327 329 330 327 326 328 330 331 329 329 331 332 333 337 336 336 339 341 340 339 337 337 337 338 341 346 355 366 369 368 370 373 372 370 370 370 371 372 371 371 371 371 370 369 371 373 374 375 374 373 372 370 369 368 366 365 364 362 360 359 359 359 360 357 356 355 350
328 330 331 329 323 320 323 325 321 318 320 326 331 331 329 328 329 328 329 330 329 329 330 331 331 330 330 331 331 332 333 333 334 336 336 334 336 338 336 336 341 340 338 344 348 353 364 370 368 369 372 370 369 369 370 371 372 371 371 373 372 371 371 372 373 375 375 374 373 371 369 368 366 364 365 364 360 360 359 358 359 359 356 356 355 351
330 331 331 329 327 325 323 322 321 323 327 330 332 332 330 333 334 331 328 331 332 331 330 330 331 331 331 330 330 331 332 332 332 334 335 332 333 334 332 332 337 336 338 348 355 362 369 369 367 370 370 369 369 369 369 371 372 372 372 374 373 372 372 372 373 375 375 374 373 370 368 367 365 362 363 362 360 360 359 358 358 357 357 356 354 352
332 334 333 328 327 327 321 318 321 324 325 330 336 338 339 339 339 337 331 333 336 333 332 332 330 330 330 330 331 331 331 333 334 333 332 332 334 334 333 333 334 335 339 345 353 365 371 368 367 370 369 368 369 369 369 371 372 373 374 373 373 373 373 373 373 375 375 374 373 370 368 367 364 361 361 361 360 359 357 357 357 356 356 355 353 352
330 334 335 329 326 327 321 319 323 322 322 331 339 341 340 337 338 341 335 333 336 334 333 336 337 334 332 330 329 331 333 332 333 334 332 333 334 336 336 338 335 335 342 349 356 366 370 368 368 368 368 369 369 368 369 371 371 373 373 373 373 373 373 373 373 374 374 373 372 370 368 366 363 360 359 359 359 357 355 356 355 355 355 353 352 350
328 331 335 331 326 326 322 321 323 321 326 340 345 340 337 335 335 338 329 327 340 349 345 345 348 346 344 340 333 332 333 331 330 333 334 335 336 336 335 339 337 336 344 353 359 365 367 365 366 367 368 370 369 368 370 370 371 373 372 372 371 371 371 371 371 372 373 372 370 368 366 363 361 360 358 358 357 356 355 355 354 354 353 351 350 348
328 330 331 327 323 324 323 323 323 323 330 344 344 337 336 335 336 335 324 325 343 354 349 348 351 350 350 350 343 334 332 332 331 332 332 333 334 332 336 343 341 338 343 352 357 363 365 365 367 369 370 369 367 367 367 369 372 372 369 368 368 368 369 369 369 371 371 370 369 367 364 361 360 358 356 356 356 356 355 354 354 352 350 349 347 344
325 326 327 325 321 322 322 322 322 325 334 341 339 335 336 334 334 331 328 335 349 351 347 349 350 349 351 351 346 339 335 333 332 333 333 333 334 336 340 345 345 345 349 355 360 364 366 367 369 368 366 365 364 364 366 369 371 369 366 367 367 367 368 368 369 371 370 368 367 365 361 359 358 357 355 355 356 355 353 353 353 350 348 347 344 340
322 323 323 323 321 319 322 322 320 324 334 339 336 335 336 335 332 332 338 346 347 344 345 348 348 350 352 350 347 345 342 337 332 331 333 336 342 347 347 347 349 352 355 357 361 364 365 365 365 363 363 363 363 363 367 369 369 367 367 367 367 368 368 369 369 370 368 366 365 362 359 357 356 355 355 354 355 354 353 352 352 350 347 345 342 338
323 321 318 321 323 321 320 320 319 323 334 339 336 337 339 338 336 340 344 344 341 342 345 345 346 351 352 350 348 347 344 343 339 337 338 341 346 351 353 354 354 356 358 361 362 362 363 364 363 364 364 364 364 366 368 368 368 368 368 368 368 368 368 368 368 368 366 364 362 360 358 356 354 353 353 353 353 353 352 351 349 347 345 342 339 336
329 322 318 322 327 321 316 319 325 330 336 337 336 339 342 341 342 343 343 342 342 344 345 346 348 351 351 351 350 348 346 344 344 344 345 347 349 353 356 357 358 360 362 362 361 361 362 364 366 366 365 365 366 368 368 368 368 368 368 368 367 366 367 367 365 365 363 362 361 359 356 354 353 351 351 352 352 352 351 349 346 345 343 341 339 337
337 334 330 331 331 327 324 330 336 338 338 336 336 339 340 340 340 341 341 342 343 343 344 346 348 348 348 348 348 348 350 349 349 351 352 352 355 358 360 360 360 360 360 360 361 363 365 367 368 366 366 367 368 367 367 368 368 368 368 367 365 365 365 364 362 361 361 359 359 357 355 353 352 351 351 351 351 351 350 347 346 344 342 341 341 340
339 340 340 339 338 337 339 341 340 339 338 336 336 336 336 336 337 339 341 342 342 342 343 345 347 348 348 348 348 351 354 354 354 355 356 356 357 359 360 362 361 361 362 364 365 366 365 365 366 366 367 366 364 365 366 367 366 367 365 364 363 364 363 361 360 360 359 358 357 355 353 352 351 351 351 350 350 350 348 346 345 344 342 342 342 342
338 336 338 341 341 337 339 343 343 340 339 337 335 335 335 335 336 337 339 341 341 341 342 344 347 348 347 348 351 353 354 355 356 357 359 361 362 361 361 362 361 360 362 362 362 361 361 361 362 363 365 365 364 364 364 363 363 363 362 362 362 361 361 360 359 358 357 356 355 353 351 350 350 350 350 349 348 348 347 345 345 344 344 343 343 343
338 335 336 342 343 340 341 343 343 341 339 338 337 337 336 335 335 335 337 338 338 338 339 341 345 347 348 347 349 350 352 353 354 355 356 357 359 360 361 361 361 361 361 361 361 362 362 362 362 362 363 364 363 362 361 360 360 360 359 359 359 359 359 358 356 355 355 353 352 351 349 350 350 349 349 348 347 346 346 346 345 345 345 344 344 344
336 336 337 339 341 342 344 344 341 339 339 338 337 337 336 335 335 334 334 334 334 336 337 337 339 343 345 344 345 346 348 348 349 350 350 351 353 355 356 357 359 359 361 361 361 361 362 362 361 361 361 360 360 359 359 358 358 357 358 358 357 357 356 354 353 354 353 351 350 349 348 348 349 348 347 345 342 341 342 341 342 343 344 343 343 343
336 337 338 339 340 341 342 342 341 339 340 338 336 336 336 333 333 333 332 333 332 332 333 334 334 335 336 337 339 341 344 345 346 346 346 348 351 353 353 353 354 355 357 358 357 357 359 359 358 358 357 357 357 357 357 356 356 356 356 356 356 355 354 353 352 352 350 349 348 347 347 347 348 347 346 342 339 337 336 336 338 340 341 340 340 341
335 336 336 337 339 340 340 340 340 340 340 337 336 336 335 333 332 331 331 331 331 330 331 332 333 332 332 332 333 335 337 340 341 342 343 345 347 349 351 351 350 350 353 355 355 356 356 356 357 358 357 356 356 355 354 354 353 353 353 354 354 354 353 352 351 350 349 348 346 346 346 346 346 348 345 339 336 335 334 333 334 336 337 338 339 339
Wind_Speed
12 10 12 14 15 18 20 20 20 21 20 17 15 12 12 13 10 11 12 14 16 13 13 14 14 14 12 12 13 12 13 14 14 14 13 13 14 14 15 15 16 16 15 18 23 24 24 24 23 22 21 22 23 22 23 23 22 22 21 20 20 19 19 19 19 19 18 17 16 16 16 16 15 14 14 13 13 12 11 9 9 10 11 10 10 10
13 12 15 17 19 20 20 22 22 22 22 19 15 12 12 12 11 14 15 15 16 12 11 14 15 15 15 14 14 13 13 14 14 15 14 14 14 14 15 16 16 14 14 17 20 23 25 25 24 23 22 23 24 24 24 24 23 23 22 21 20 20 20 20 20 19 18 18 17 16 16 15 14 14 14 13 13 12 11 10 9 9 10 10 10 11
13 13 17 20 19 19 20 22 23 23 22 18 14 12 11 11 12 15 16 16 15 10 10 14 14 13 15 15 14 15 14 13 13 14 14 15 14 13 15 15 15 15 15 16 18 21 25 26 26 25 23 24 25 24 24 24 24 23 23 22 21 21 21 21 20 19 18 18 17 16 14 14 13 12 13 12 12 11 11 10 10 9 9 9 9 9
11 13 18 20 18 20 22 22 23 21 18 16 14 12 9 12 13 11 10 13 13 9 9 13 11 10 13 14 14 15 15 13 14 15 15 14 14 14 15 15 15 17 16 17 18 20 23 26 27 26 25 24 24 25 25 25 25 24 23 23 22 22 21 21 21 20 18 17 16 15 14 13 12 11 11 12 12 12 11 11 11 10 10 10 9 8
13 13 17 19 18 21 22 21 21 17 14 17 18 14 11 15 16 12 9 11 9 10 11 12 9 9 12 14 14 14 15 15 15 16 16 15 15 15 15 16 16 17 17 17 18 19 21 23 26 28 27 26 25 25 26 26 26 24 24 24 23 22 21 21 21 21 19 17 16 15 14 13 12 12 11 12 12 12 12 12 11 11 11 10 9 8
15 13 16 20 21 21 22 19 20 17 13 16 20 19 18 16 16 16 14 13 9 10 13 14 9 8 12 15 14 12 14 16 15 16 17 16 15 16 15 15 16 17 17 17 18 19 19 22 26 28 28 27 26 26 26 26 26 24 23 24 23 22 21 21 21 21 20 18 17 16 16 15 13 13 13 13 13 12 12 12 11 11 11 10 9 9
12 15 16 20 22 22 20 18 20 20 13 13 17 20 22 19 16 18 16 12 9 8 11 14 11 7 10 13 15 14 15 17 16 17 18 16 15 16 15 15 16 17 17 17 19 19 20 22 24 26 29 29 27 27 27 26 26 25 24 24 24 23 22 21 21 22 21 19 18 17 16 15 14 14 13 13 13 11 10 10 9 9 9 9 9 8
12 19 18 17 19 20 18 16 19 20 15 12 15 20 22 22 20 19 17 12 9 8 10 14 14 10 8 10 14 17 17 17 18 18 17 16 16 17 17 17 18 18 18 17 18 20 20 21 24 26 29 29 28 27 27 26 25 26 25 24 25 24 22 22 22 22 22 20 19 18 17 15 15 14 13 13 12 11 10 9 8 8 8 8 8 7
14 21 20 19 18 16 15 16 18 20 16 14 16 18 18 20 21 20 18 13 10 10 10 14 15 11 9 9 12 16 18 18 19 19 18 17 17 18 17 18 19 19 19 19 19 21 21 22 25 28 29 29 28 27 27 27 26 26 26 25 25 25 23 22 22 23 23 21 19 18 17 16 15 15 14 13 12 11 10 9 9 8 8 8 7 7
13 17 19 18 16 15 15 16 19 19 15 15 18 19 17 19 19 18 17 12 10 12 12 14 16 11 8 10 12 13 14 15 16 16 17 16 15 15 15 17 18 18 19 19 20 20 21 23 27 28 29 29 28 27 27 27 26 26 26 25 26 26 24 23 23 23 23 22 20 18 18 17 16 15 14 13 12 11 10 10 10 9 8 8 7 7
12 13 15 15 14 14 15 17 20 21 18 16 17 18 18 16 14 13 13 11 11 13 14 18 19 15 10 10 11 12 12 14 14 13 13 14 14 14 14 14 16 16 16 18 20 20 21 24 27 27 28 29 28 27 27 27 27 26 26 26 27 26 25 24 24 24 24 23 21 20 19 19 17 16 15 14 13 13 12 11 10 10 8 8 8 7
15 13 12 13 14 15 17 18 18 20 20 16 13 14 13 10 9 10 11 13 13 12 14 19 22 19 13 10 11 13 15 16 14 14 14 16 17 16 15 14 14 15 16 17 18 18 20 21 24 26 27 28 29 29 28 28 28 27 27 27 27 27 26 24 24 25 24 24 23 21 20 20 19 18 16 16 15 15 14 12 11 10 10 10 9 8
16 15 12 13 16 18 17 15 15 16 17 15 13 13 13 10 10 11 11 12 12 12 15 18 18 18 14 10 12 14 16 16 15 15 16 17 18 18 18 17 14 14 16 16 16 17 18 18 19 23 26 28 29 30 30 30 29 28 27 28 28 28 27 25 25 25 25 24 23 22 22 20 20 19 18 17 16 16 15 13 12 12 12 11 10 10
12 15 17 16 14 17 18 14 12 13 15 16 15 13 12 10 11 11 11 12 12 13 17 17 13 12 11 11 15 17 16 15 15 16 16 14 15 17 18 17 15 15 16 16 18 18 17 18 19 21 26 28 29 31 32 31 30 28 28 29 29 28 28 26 26 26 26 25 24 23 22 21 20 20 19 19 18 17 16 14 14 14 13 12 12 12
12 13 17 18 12 15 21 18 15 14 14 15 15 14 13 11 11 11 10 11 12 12 16 17 13 10 10 10 15 19 17 14 12 15 16 14 13 13 16 16 16 16 16 17 18 19 19 20 21 23 27 29 30 32 33 32 31 29 28 29 30 29 29 28 27 27 26 26 25 24 23 22 21 20 20 20 19 18 17 16 15 15 14 14 13 13
14 11 14 20 16 16 21 20 18 16 14 13 13 14 14 12 12 11 10 12 13 12 13 14 11 9 10 9 10 14 16 16 13 14 16 16 16 13 13 16 17 16 18 19 19 20 21 21 22 25 28 30 31 32 33 32 32 31 29 30 30 30 30 29 28 27 27 26 25 25 24 23 22 21 20 20 19 19 18 18 17 15 15 15 14 13
12 10 13 20 20 20 20 19 21 18 12 10 13 16 15 15 15 11 12 14 14 13 11 11 11 10 12 11 10 12 13 14 14 15 17 19 18 13 9 11 15 16 18 20 19 19 21 21 22 26 29 30 32 32 33 33 33 33 31 30 30 30 29 29 29 28 27 26 25 25 25 25 23 23 22 21 20 20 19 18 17 16 16 16 15 14
9 9 12 19 21 21 19 18 22 22 16 11 12 15 15 16 16 11 11 13 13 13 11 13 17 14 11 10 11 15 16 14 15 17 19 19 16 12 10 11 14 17 18 19 20 19 20 21 22 26 31 33 34 34 34 35 34 34 32 30 31 30 30 30 29 28 27 26 26 26 26 26 25 24 23 22 21 21 20 19 19 18 17 17 17 15
9 8 10 17 19 18 18 16 17 20 23 19 13 13 13 13 14 12 11 11 13 13 10 15 20 16 11 9 11 16 18 18 18 19 19 19 16 12 14 13 13 14 16 18 19 18 18 20 22 26 31 33 34 34 34 34 34 33 32 31 31 31 31 30 28 27 26 26 26 26 26 26 25 24 24 22 22 22 21 21 21 20 19 19 19 18
9 7 8 13 15 15 14 13 13 14 21 23 18 13 12 12 13 13 11 9 12 13 11 15 17 12 10 11 14 17 18 19 20 20 18 17 17 15 14 14 11 12 15 16 17 18 19 21 23 28 31 33 34 33 33 34 34 33 32 31 31 31 30 29 28 27 27 27 27 26 25 26 25 25 25 23 23 23 22 22 22 22 21 21 21 20
9 7 8 10 15 14 11 13 15 15 15 18 17 16 13 11 11 12 12 12 12 11 10 12 13 10 9 11 15 15 15 16 18 19 17 16 19 17 13 15 14 14 16 16 16 18 20 20 22 28 31 32 32 32 32 33 33 33 32 31 31 31 31 30 29 29 28 28 28 27 26 26 26 26 25 25 24 24 23 23 23 22 22 22 23 23
9 7 8 9 12 13 14 15 19 19 17 15 15 16 16 12 11 12 14 14 12 11 11 11 11 10 10 11 11 12 12 14 15 16 15 16 18 13 10 14 16 14 15 16 16 17 18 18 20 24 28 30 31 32 33 33 32 33 32 31 31 31 31 31 31 30 30 29 28 28 27 26 27 27 26 26 26 25 25 24 24 23 23 24 25 25
11 7 9 10 10 12 16 18 20 22 21 18 16 17 17 14 12 12 12 11 11 13 14 13 12 9 9 9 8 11 14 16 15 13 11 12 12 10 12 13 14 14 14 15 16 16 16 16 17 20 24 28 29 31 32 33 32 32 32 31 31 31 32 32 31 30 30 29 28 28 28 27 27 27 28 28 27 27 27 26 25 25 25 27 27 26
11 8 9 10 9 11 14 16 18 21 20 17 16 16 17 18 17 14 11 11 11 14 14 13 13 11 9 10 8 9 14 16 15 14 13 12 11 12 15 8 10 13 13 13 13 13 13 15 15 16 18 21 24 28 31 31 31 31 32 31 31 31 32 32 31 30 30 29 28 28 28 28 27 28 29 29 28 28 28 26 26 26 27 28 28 27
11 9 10 9 9 10 12 12 14 17 16 13 14 17 19 24 25 19 14 12 11 15 17 14 12 10 10 11 12 10 12 14 14 15 16 16 12 12 12 5 8 9 11 12 12 12 13 14 14 13 13 15 21 25 28 29 30 31 31 32 31 31 31 31 30 30 29 29 28 28 28 29 28 29 30 30 29 28 28 27 26 27 28 29 29 27
11 10 11 11 11 12 12 11 11 13 13 11 15 20 23 25 26 20 14 13 12 13 17 15 11 10 11 14 16 13 10 11 13 14 15 15 13 13 10 5 9 9 10 12 12 12 13 12 13 14 13 15 21 25 25 27 29 30 30 31 31 30 30 31 30 30 29 28 28 29 29 29 29 30 31 31 29 28 28 27 26 27 28 29 28 27
8 10 14 15 14 12 11 12 11 12 13 15 18 23 23 23 24 20 15 14 13 12 14 15 13 14 15 16 19 18 15 12 13 13 13 13 13 14 9 8 10 10 10 12 12 12 12 11 13 15 15 17 22 24 24 26 28 28 29 30 30 29 29 30 30 29 29 28 28 29 29 30 30 30 30 30 29 27 27 27 27 27 28 28 28 27
6 10 17 19 19 18 16 15 14 15 17 18 19 22 23 23 24 22 18 17 15 13 14 15 16 17 19 19 20 19 18 17 15 15 15 14 13 12 10 11 12 12 12 12 12 13 13 12 14 16 16 17 21 23 24 25 26 26 27 29 29 28 28 28 29 29 29 28 28 28 28 29 29 29 29 28 27 26 26 26 26 27 28 28 29 29
6 11 14 17 20 22 22 21 18 17 19 18 18 20 22 23 25 24 22 22 20 15 13 14 17 19 20 21 22 20 17 17 17 17 17 16 13 12 11 12 14 13 13 14 14 14 14 14 14 16 17 18 20 23 24 24 25 25 25 27 28 27 27 27 28 28 28 27 26 26 26 26 26 27 26 25 25 26 26 26 25 26 27 28 30 29
8 9 12 16 18 20 23 23 23 22 20 19 21 23 23 24 25 25 24 25 25 22 19 18 19 19 18 19 22 22 19 16 14 15 16 17 15 14 15 14 14 13 13 14 14 14 14 15 16 16 17 17 19 22 24 23 24 25 25 26 27 26 26 26 27 28 27 26 25 25 25 25 25 24 24 24 24 24 24 24 24 25 26 27 29 28
11 9 12 15 14 16 20 22 24 25 23 23 23 25 25 23 24 25 24 23 23 22 23 24 22 18 15 15 18 20 21 19 16 14 15 16 16 16 16 15 14 13 11 11 12 14 14 15 16 17 18 19 20 23 24 23 24 25 25 25 26 26 26 26 27 27 26 25 24 24 24 25 24 23 23 23 23 23 22 22 22 23 25 26 28 28
13 10 12 12 12 14 17 20 23 24 24 26 25 25 26 23 22 23 21 20 21 19 21 23 20 15 12 14 15 16 20 22 23 21 17 14 14 15 15 14 13 13 11 8 9 12 14 16 17 19 20 20 22 25 25 24 24 25 25 25 26 26 26 26 26 26 25 24 23 24 24 24 23 22 22 22 23 24 22 20 20 22 23 24 26 27
12 10 10 11 11 12 17 20 21 19 19 20 21 24 25 23 23 23 20 21 23 21 17 17 15 13 14 16 16 17 20 22 22 22 19 16 15 16 16 15 15 15 14 9 9 11 15 16 17 19 19 19 23 27 26 25 25 24 24 25 25 26 26 25 25 25 24 23 23 24 23 23 22 22 22 22 22 23 22 21 22 22 21 23 25 25
15 12 9 10 10 11 16 18 16 15 15 13 14 19 23 24 24 25 23 24 24 20 17 16 17 17 16 17 19 20 20 18 18 18 18 17 16 17 19 20 18 18 17 11 9 11 14 15 15 17 20 21 23 26 26 24 23 23 23 24 25 26 26 25 24 23 23 23 23 23 23 23 22 22 21 21 21 21 20 21 23 22 22 23 24 24
16 12 10 10 9 10 12 13 14 15 13 12 13 17 20 22 23 24 24 24 24 24 23 22 21 20 18 18 19 19 18 19 19 20 21 20 19 18 20 20 18 18 17 11 10 13 14 15 14 16 19 22 24 25 25 24 23 24 24 24 25 25 25 24 23 22 22 22 22 22 22 22 22 21 19 19 20 20 21 22 22 21 23 24 23 24
12 11 9 9 9 9 9 11 13 10 9 12 13 10 10 12 13 16 18 19 19 20 22 22 21 20 19 19 19 17 17 18 19 19 21 22 22 22 22 21 21 20 17 12 11 13 14 16 17 18 20 23 24 25 25 24 24 24 24 24 25 24 24 23 22 22 22 22 22 22 22 21 21 20 19 19 20 20 20 21 20 19 21 21 21 23
11 10 9 9 9 9 10 11 11 10 11 11 6 0 1 3 4 5 8 12 15 16 17 19 21 22 20 19 18 15 14 14 14 16 20 21 21 20 19 19 20 20 16 13 13 14 16 18 20 22 23 24 25 25 25 24 24 24 24 24 24 23 23 23 21 21 22 21 21 21 21 21 20 20 19 18 19 19 19 19 19 18 18 17 17 19
13 11 9 9 8 8 10 11 10 12 11 5 2 4 3 3 4 5 5 9 12 15 17 17 17 19 20 20 19 16 14 14 14 13 15 17 18 17 17 17 18 16 12 12 14 16 18 20 22 24 25 25 25 26 26 25 25 25 23 23 23 23 22 21 20 20 20 20 20 20 20 20 19 19 19 18 18 18 18 19 19 18 17 18 18 18
18 13 10 10 8 9 10 9 10 11 7 4 4 2 1 3 4 4 6 7 5 9 12 13 14 14 15 16 18 16 14 14 14 11 11 15 17 18 17 16 17 14 11 12 15 16 18 21 22 24 25 25 26 27 28 27 26 25 23 22 22 22 21 20 20 20 19 19 20 20 19 19 18 18 18 18 18 18 17 17 16 15 16 19 18 18
18 13 11 12 11 10 11 10 9 8 5 6 7 3 2 3 2 3 8 6 5 11 12 12 14 13 12 13 13 14 14 14 12 11 13 18 21 18 14 13 14 14 12 13 15 17 19 21 21 22 23 24 25 27 29 27 26 24 22 21 21 19 19 19 19 19 19 19 19 20 19 18 18 17 17 18 18 17 16 15 14 15 17 19 16 14
15 13 13 13 13 12 12 11 8 7 6 8 8 4 3 4 5 7 7 2 6 9 9 11 14 14 12 12 9 9 13 14 12 12 15 19 16 12 12 11 11 11 12 13 16 18 19 20 20 20 21 22 24 25 26 25 23 21 21 20 19 17 17 18 18 18 18 18 18 18 17 16 16 17 17 17 17 17 16 16 15 16 18 19 16 15
13 12 12 13 14 13 12 11 10 8 7 10 9 7 6 5 7 6 2 2 5 8 9 10 12 13 13 12 10 9 13 16 15 14 14 12 6 5 9 10 10 11 12 14 17 19 18 17 18 19 20 21 22 21 21 21 20 19 19 18 17 16 16 17 17 16 16 16 16 16 15 14 15 16 16 16 16 16 17 16 15 17 18 18 17 18
13 12 12 11 11 11 11 12 12 8 7 11 10 8 6 5 4 2 3 3 4 6 8 9 9 10 11 13 12 12 14 16 13 10 9 8 5 5 7 9 10 11 12 14 16 19 18 16 17 19 21 22 21 20 20 20 19 19 18 17 17 17 17 16 15 15 14 14 14 14 14 13 14 14 15 15 16 16 16 15 15 15 17 17 16 17
9 11 10 9 9 10 11 10 6 1 6 10 8 4 2 1 3 3 3 3 3 4 5 6 7 9 9 11 14 14 14 12 8 5 6 8 9 8 8 10 10 11 13 14 16 19 19 17 17 20 22 22 22 21 21 22 21 20 19 19 18 18 18 17 16 15 13 12 12 12 12 12 13 13 13 14 16 15 14 14 14 15 17 18 17 16
5 5 5 6 7 7 4 2 3 5 6 5 3 4 5 3 3 2 2 3 3 3 4 5 7 8 8 9 12 13 10 7 5 5 6 8 8 8 10 11 11 12 14 14 17 20 21 20 21 23 23 23 23 22 21 22 22 21 19 18 18 18 18 17 17 16 14 12 11 12 11 11 12 13 12 13 15 14 14 14 15 16 18 18 16 16
9 10 8 4 3 3 4 7 8 7 7 7 6 6 6 6 6 5 5 5 4 4 5 5 6 7 6 7 9 8 5 3 4 6 6 6 8 10 12 12 13 14 15 15 18 21 23 23 22 22 22 23 22 22 20 20 20 20 19 17 17 17 17 17 17 16 14 12 11 11 11 11 12 12 11 11 12 12 14 16 16 16 17 18 17 17
7 10 8 4 4 5 5 7 9 8 8 9 9 8 9 10 10 9 8 7 7 7 6 6 7 8 6 2 1 2 3 4 5 7 8 8 8 11 12 13 14 15 16 17 18 20 21 19 18 18 20 20 20 20 20 18 18 18 18 18 18 17 17 17 16 15 14 12 10 10 10 11 11 11 12 12 12 12 14 17 16 16 17 18 18 18
4 8 8 4 3 1 2 6 9 10 9 9 9 8 8 10 13 14 13 12 13 12 11 11 9 8 7 7 8 9 10 10 8 10 11 10 9 10 10 12 14 16 17 18 19 20 19 17 16 17 18 17 17 17 18 17 17 17 17 17 18 18 18 17 16 14 13 11 10 9 9 10 11 11 12 12 11 12 13 15 15 17 18 18 18 17
4 5 7 5 2 2 4 3 7 10 10 11 11 10 9 10 13 16 17 17 16 15 14 15 13 9 8 10 11 12 12 12 11 13 13 11 11 11 10 12 14 16 17 18 19 19 19 18 18 18 17 16 16 16 16 15 15 15 15 16 18 18 18 17 16 14 13 11 10 9 9 10 11 12 12 12 12 10 10 10 11 11 12 13 14 15
4 2 4 4 1 2 2 1 2 4 6 8 9 9 9 10 12 16 18 18 17 17 17 17 15 14 14 15 14 14 13 13 14 15 15 13 12 12 12 13 14 15 16 18 19 19 19 18 18 19 18 16 15 15 15 14 14 13 13 14 14 15 16 16 14 13 12 11 10 11 11 11 12 13 12 14 16 14 11 8 7 7 8 9 12 13
3 3 3 3 1 0 1 1 0 2 5 8 8 9 9 9 11 15 17 17 16 17 17 16 15 16 16 17 18 17 16 16 16 17 17 16 14 13 13 13 13 13 15 17 17 16 17 17 17 17 16 15 14 14 14 14 13 12 11 11 11 12 13 13 11 10 11 11 9 10 10 10 12 13 13 15 17 16 14 11 9 9 9 9 9 11
Wind_Direction
196 207 211 214 215 211 212 215 221 227 232 234 229 217 216 227 228 221 207 175 185 208 208 206 208 214 210 184 181 188 192 196 196 195 193 191 192 193 196 199 199 199 198 192 194 196 193 192 191 189 190 190 191 191 188 188 189 190 191 192 191 193 193 192 194 197 199 201 204 207 212 214 215 217 220 222 224 225 223 216 207 210 214 206 200 213
199 215 216 214 218 216 213 217 222 227 233 237 236 223 213 225 228 222 214 180 179 202 209 211 213 211 213 201 186 189 198 199 199 199 195 195 195 195 198 201 201 199 200 195 191 195 194 192 191 190 191 191 190 191 190 190 191 191 192 194 193 192 194 195 196 198 201 203 205 208 212 216 217 218 220 222 225 225 223 216 204 211 221 206 200 223
205 219 218 214 218 221 219 219 222 226 231 235 239 234 217 218 224 224 213 181 175 195 209 214 219 216 213 209 196 191 199 204 203 202 198 197 198 198 199 201 202 200 200 199 192 193 195 194 192 191 191 193 191 191 191 191 191 192 194 195 194 193 194 197 197 198 202 204 207 210 213 217 220 220 221 225 227 227 225 218 208 208 215 207 204 219
207 215 217 215 214 220 222 219 220 225 229 232 234 235 229 218 219 226 204 171 170 188 214 220 219 222 219 212 206 200 199 202 204 206 204 200 201 203 203 200 202 202 200 201 196 192 195 195 193 191 191 193 192 192 191 191 191 192 194 195 194 195 195 196 199 200 202 204 207 211 214 218 222 222 223 223 224 226 224 217 211 208 206 206 208 208
220 210 209 216 216 217 222 220 218 222 224 230 231 232 234 220 217 223 187 163 186 203 217 230 223 222 223 215 210 204 201 201 203 208 209 205 202 203 206 203 202 204 202 202 200 195 195 196 194 192 191 192 193 193 192 192 192 192 194 195 195 196 196 197 199 200 201 202 205 208 213 216 219 222 223 221 221 222 222 220 218 217 215 215 216 211
224 211 201 212 216 216 220 219 217 219 221 227 228 229 237 231 222 225 199 176 206 220 210 221 230 224 220 220 219 210 206 204 202 208 211 209 205 202 206 206 202 204 203 202 202 199 197 197 196 193 191 192 194 194 194 194 193 193 193 193 194 196 197 198 198 198 199 200 203 205 208 211 210 214 217 218 220 219 220 223 222 220 219 218 218 215
222 218 210 210 214 213 217 221 218 219 224 226 220 219 233 241 236 234 223 200 210 222 205 212 230 237 221 217 219 220 218 210 202 207 212 210 208 207 206 205 203 203 202 202 202 201 199 198 197 195 194 194 195 194 194 194 195 194 193 192 193 194 197 198 198 197 197 199 202 204 207 210 209 211 213 215 220 220 218 219 215 212 207 204 211 211
213 220 216 207 213 213 214 221 216 216 225 229 220 215 222 236 240 240 239 228 217 217 211 215 227 239 234 219 217 220 221 215 208 207 210 211 211 212 211 206 202 202 202 200 200 202 202 199 198 198 196 196 197 195 193 194 195 194 193 192 191 193 196 197 197 195 196 198 200 202 207 211 213 216 215 213 217 218 215 213 207 205 199 196 204 206
207 218 213 200 212 219 212 216 214 215 225 230 230 228 221 225 235 243 245 237 224 222 221 219 222 234 239 225 220 221 219 218 213 206 207 210 210 211 216 215 206 201 201 201 199 200 203 201 199 198 196 197 197 195 193 193 193 193 193 191 190 192 195 195 194 194 196 197 199 201 204 209 213 216 218 215 214 215 212 209 204 201 199 198 202 203
207 217 217 204 210 222 214 212 216 219 226 231 236 242 236 224 222 232 243 244 233 232 231 223 219 230 243 226 218 221 219 218 216 209 204 206 211 210 215 225 219 206 200 200 200 198 201 202 200 197 196 196 197 195 194 193 193 192 192 191 190 192 193 193 192 193 196 197 198 201 203 208 212 212 216 215 211 209 206 205 203 200 203 207 206 202
219 207 219 218 210 217 217 215 219 222 226 229 233 240 244 238 226 226 236 243 238 232 229 226 222 225 238 230 217 220 220 215 215 215 202 195 207 210 208 223 232 222 206 199 198 196 197 199 198 196 195 194 195 195 194 193 193 192 191 191 191 192 193 192 192 193 196 198 199 202 204 207 211 209 210 211 208 206 201 201 204 203 206 212 211 205
231 209 209 219 213 213 220 221 219 220 222 225 227 231 235 241 240 233 229 231 237 237 228 225 223 225 233 228 216 217 220 216 210 214 211 197 198 204 203 207 222 232 221 205 199 194 192 195 195 195 194 192 193 195 194 193 193 193 192 191 191 193 194 192 192 194 197 200 201 203 205 206 209 209 209 210 209 207 203 201 202 203 206 209 209 206
228 224 208 209 214 213 218 220 214 213 216 217 221 224 222 221 225 224 223 224 229 237 235 228 225 228 234 231 227 224 221 218 208 209 217 206 195 196 199 194 196 222 226 212 204 196 190 191 192 192 191 190 192 194 195 194 193 194 193 192 191 193 193 191 192 195 198 202 203 203 205 206 207 208 209 210 209 208 205 199 199 203 204 205 204 203
217 224 213 209 210 208 215 219 208 204 208 210 212 217 216 215 219 216 219 226 226 230 233 232 234 238 235 228 229 229 225 221 209 205 216 221 207 193 190 188 186 205 220 215 205 196 191 190 189 190 190 189 192 194 194 194 194 194 193 192 192 191 192 191 192 195 197 201 203 202 203 204 205 206 208 210 210 208 204 198 200 203 202 202 202 201
214 219 208 207 202 198 209 220 217 207 207 210 212 218 218 215 223 220 214 223 230 232 229 226 229 234 234 228 219 217 222 225 212 204 210 223 223 193 177 184 188 197 213 214 205 197 193 190 187 189 189 189 192 193 194 195 194 194 194 193 192 190 190 190 191 194 197 200 202 201 202 202 203 204 206 209 210 208 205 201 201 202 202 202 200 200
223 226 207 204 203 199 204 215 221 216 210 205 208 222 222 214 225 236 232 228 231 237 232 226 225 222 231 239 214 204 215 220 214 210 211 217 222 204 180 185 190 197 208 208 204 199 194 190 186 188 189 189 191 192 193 194 193 194 195 193 192 191 190 189 191 193 196 198 200 201 202 202 201 202 203 207 208 207 207 203 201 200 201 201 198 199
223 230 209 200 201 204 205 208 215 221 217 197 204 222 222 218 227 241 243 235 234 238 232 230 235 223 220 231 218 202 209 215 213 217 222 224 222 208 189 194 196 201 208 204 199 197 193 190 188 188 189 189 190 191 192 192 192 193 194 192 192 190 189 190 191 193 194 195 198 200 201 201 200 201 202 205 206 205 206 203 200 198 197 198 197 196
224 236 211 201 204 204 202 207 215 222 225 212 207 215 215 222 229 236 240 233 232 238 231 230 238 230 216 217 214 210 207 207 215 220 226 232 227 202 193 212 209 204 207 201 197 196 192 191 189 188 190 190 189 189 190 189 189 191 192 191 190 189 190 190 190 192 193 193 196 199 201 201 200 201 203 205 205 204 203 201 198 197 196 195 196 194
219 238 215 204 207 198 191 205 216 217 223 230 230 211 205 217 221 223 232 230 231 235 230 233 237 233 223 212 213 218 210 202 211 219 223 229 228 202 188 205 213 210 211 202 195 195 193 192 191 189 189 189 189 188 188 187 187 189 191 190 190 190 191 191 191 192 192 193 197 200 201 200 199 201 204 205 204 203 202 201 199 198 196 193 193 191
213 229 229 202 193 188 187 202 214 209 213 227 237 222 209 217 219 220 224 229 236 237 231 232 235 234 229 215 209 217 213 205 212 220 219 222 230 217 190 186 198 210 215 207 196 195 196 195 193 192 190 189 188 187 186 186 187 189 191 190 192 191 190 190 190 190 191 194 198 199 199 198 197 200 202 203 204 202 201 201 200 199 198 194 191 189
212 208 230 202 180 189 202 202 210 212 202 211 225 225 216 214 219 222 221 221 230 240 238 233 233 232 234 224 208 205 209 211 216 220 210 212 230 227 192 177 187 202 209 205 200 197 197 197 195 193 193 190 187 186 186 187 189 191 191 191 192 191 189 190 190 190 192 194 197 198 196 195 196 199 200 201 202 201 199 199 199 200 200 197 191 186
216 204 221 213 186 197 214 207 208 218 216 206 210 221 223 217 213 219 221 218 218 233 242 241 241 228 222 231 214 197 211 219 218 218 205 206 224 229 208 192 186 191 201 200 202 202 196 197 197 194 193 191 189 187 187 188 189 191 192 192 192 191 191 192 191 191 192 194 196 197 195 195 195 197 199 200 201 200 198 198 198 199 200 200 194 186
218 218 219 225 214 208 213 210 209 219 227 223 213 216 223 223 221 221 221 216 216 226 233 241 250 232 213 230 211 187 212 222 214 209 204 209 217 232 244 219 170 170 194 199 203 205 197 196 196 193 192 192 191 188 186 187 189 190 191 191 191 192 193 194 193 191 191 193 195 195 194 195 195 196 198 200 200 200 200 199 198 198 201 204 198 187
210 227 220 226 238 225 214 213 211 212 222 230 221 213 217 222 224 228 228 222 222 225 225 231 240 233 230 247 234 196 206 218 213 202 204 219 220 228 243 224 140 159 190 198 204 204 196 192 192 192 190 190 192 189 186 187 187 188 189 190 191 192 194 194 193 191 191 192 193 193 193 194 195 197 199 201 201 201 203 203 201 199 201 205 200 189
195 221 219 216 229 222 209 209 209 205 208 223 224 215 217 221 220 224 231 231 229 227 227 233 234 228 227 236 243 230 204 207 218 213 216 225 226 235 242 192 134 166 183 192 202 201 196 190 186 189 188 186 190 190 188 187 185 185 187 189 191 192 192 193 192 192 191 191 193 193 193 195 196 198 200 202 202 202 204 205 204 201 200 202 200 190
201 206 211 215 219 211 206 207 205 202 202 214 224 222 221 220 218 220 228 231 230 225 229 238 240 231 221 214 225 231 203 194 212 218 225 228 220 231 239 166 149 173 178 188 197 195 197 189 181 185 183 184 190 190 188 187 185 184 185 188 191 190 190 191 191 191 189 191 193 193 194 195 196 199 201 202 203 203 206 206 204 202 201 202 200 192
227 214 210 217 227 223 218 216 207 207 210 209 215 224 226 221 217 219 226 230 230 227 232 240 242 243 240 227 220 218 206 201 213 220 233 241 227 219 205 151 157 174 176 186 191 192 198 189 181 184 181 183 189 189 188 188 187 184 183 186 189 188 188 189 189 188 187 190 194 194 194 195 197 200 201 201 202 203 206 206 204 205 206 206 206 198
247 235 215 213 225 235 241 237 219 218 227 219 210 217 225 225 222 221 225 230 230 231 233 231 231 239 247 246 237 225 211 207 219 231 238 244 237 220 187 159 168 176 175 182 188 190 195 190 183 184 181 181 186 187 188 188 188 186 184 185 187 187 187 186 186 185 185 189 194 194 194 195 197 199 200 200 201 202 204 204 204 207 207 208 212 206
234 238 223 216 221 229 242 249 238 230 235 233 225 223 223 225 228 229 229 229 229 235 239 231 227 231 236 243 247 246 231 212 214 229 236 232 224 220 210 188 178 180 180 183 187 189 191 189 185 183 182 181 183 185 186 188 188 187 184 184 186 186 185 183 182 184 185 188 193 193 193 193 195 198 199 199 199 199 201 201 203 207 207 208 214 210
228 233 228 231 232 228 233 243 244 241 238 233 231 233 228 224 227 232 234 233 232 237 242 239 236 235 232 233 239 249 251 235 215 215 226 229 225 227 228 211 194 192 188 183 186 188 189 189 186 184 184 183 183 184 185 187 187 186 183 183 185 186 183 179 179 182 185 188 190 190 190 191 193 195 195 197 200 199 199 200 203 208 209 210 214 212
216 225 225 234 246 239 231 233 238 241 243 239 233 233 233 229 227 229 232 233 235 237 238 240 241 239 235 230 229 238 251 255 244 222 216 221 224 230 236 230 222 222 214 199 192 188 188 189 185 185 188 186 183 183 185 186 185 185 182 181 182 183 180 177 177 181 184 186 187 187 187 188 191 192 192 197 203 204 201 200 204 211 211 208 212 215
207 220 222 225 239 242 236 236 237 235 239 244 241 236 234 232 230 230 228 229 233 235 236 240 242 238 235 235 230 229 239 249 251 244 233 224 220 226 237 241 241 241 236 216 194 187 190 190 188 189 191 189 183 181 184 185 182 182 181 179 179 178 177 177 177 179 182 183 184 185 185 188 191 192 193 196 204 210 209 204 206 214 213 206 209 215
208 213 217 221 232 236 233 237 241 238 236 238 238 238 238 237 236 235 230 228 230 232 233 236 241 242 238 237 235 231 231 235 241 244 245 244 240 237 239 242 242 244 244 225 191 191 195 194 194 193 192 191 185 180 182 183 180 180 179 175 174 175 175 176 176 178 181 182 184 184 185 190 193 194 195 195 200 210 214 211 212 214 211 205 207 209
207 205 215 224 231 236 232 233 239 239 236 235 233 237 243 246 246 244 238 231 228 231 235 235 235 237 236 235 235 233 233 234 237 241 243 246 249 246 241 240 236 239 246 237 203 204 205 197 197 194 190 192 187 178 177 179 177 176 175 171 172 173 174 175 175 177 180 182 184 185 187 193 196 198 198 195 199 209 213 215 215 211 209 208 207 202
202 198 216 225 227 235 233 232 233 232 235 245 239 233 239 248 256 261 258 245 234 233 238 240 238 233 231 235 237 234 233 235 238 242 241 240 243 244 242 240 234 235 242 233 207 211 208 195 193 190 186 188 183 174 173 175 174 172 172 170 171 172 173 174 174 175 179 182 184 185 187 190 194 199 197 194 201 210 214 216 214 209 211 214 209 203
208 200 212 220 222 229 226 224 232 239 251 254 245 235 243 257 265 273 273 263 251 245 242 244 245 241 235 234 235 234 232 232 235 240 240 237 239 241 239 237 234 233 229 213 202 205 197 187 188 185 179 179 177 171 171 173 172 169 169 168 169 171 173 173 174 175 178 181 183 185 186 186 190 196 198 199 205 210 213 216 213 208 213 217 212 206
218 208 212 216 213 219 227 230 237 248 249 246 245 215 359 304 292 292 289 281 278 276 266 254 247 246 244 239 238 240 238 237 239 238 233 232 236 241 241 239 238 235 221 204 199 192 183 182 183 178 174 175 173 168 167 169 168 165 166 167 168 169 170 171 174 175 177 179 182 183 182 181 186 194 198 201 204 207 213 216 213 209 211 214 210 202
220 214 215 220 214 213 225 232 235 236 230 213 91 74 57 355 351 355 313 275 273 285 286 280 269 260 255 246 239 238 241 242 243 236 228 229 232 236 239 240 241 239 221 198 189 180 175 179 179 174 171 171 170 164 162 163 164 163 164 166 166 166 167 170 173 174 175 177 178 179 178 178 182 191 197 201 203 206 212 215 212 210 208 209 209 203
220 215 216 223 221 216 222 227 230 233 218 147 133 148 29 8 11 347 281 254 284 325 321 322 318 302 287 269 248 236 235 239 239 236 234 238 238 235 233 232 232 231 217 194 184 176 173 175 175 171 169 169 166 161 160 161 161 162 164 165 165 165 167 169 172 172 174 175 174 174 175 175 179 187 195 200 203 206 210 210 208 206 202 204 210 208
216 211 211 220 221 217 223 229 231 238 217 161 162 187 320 345 359 255 240 236 4 0 347 336 324 316 320 311 277 246 236 238 240 237 239 245 243 230 217 218 219 215 206 190 179 171 168 169 169 168 168 168 164 159 159 159 159 161 162 162 163 165 166 168 170 169 169 169 167 169 172 173 178 185 192 198 202 204 207 205 200 192 191 197 202 197
213 210 209 217 219 216 221 227 234 244 218 181 176 196 263 288 268 239 230 255 351 342 343 339 324 315 317 316 297 262 252 252 248 241 246 255 249 215 193 200 204 195 185 174 163 159 161 164 166 168 167 163 159 157 156 156 155 155 155 155 157 160 161 162 162 161 162 162 162 166 169 171 176 184 192 198 199 200 202 203 195 181 181 193 199 189
203 207 209 214 217 218 219 223 235 241 200 167 170 181 188 224 247 239 232 330 321 321 332 332 322 319 314 303 290 278 275 271 258 245 252 267 266 185 176 181 178 175 173 162 153 155 159 161 162 162 157 151 149 150 150 149 145 144 145 146 146 148 148 149 150 151 153 156 159 163 166 169 175 185 193 196 198 200 200 199 193 181 182 194 198 191
196 199 210 211 211 218 219 219 232 235 175 164 178 185 188 221 264 340 1 327 314 323 322 315 315 320 312 300 289 279 274 273 267 255 256 260 238 197 182 168 161 160 154 146 148 154 155 152 150 148 143 139 139 140 139 136 131 131 133 130 128 132 133 135 139 141 144 152 158 162 165 168 174 184 192 195 198 199 192 184 178 175 179 186 184 181
207 204 213 208 203 215 220 220 230 186 147 175 194 181 160 274 348 5 334 326 355 345 322 317 323 321 309 297 291 279 264 256 251 238 232 229 215 195 171 154 150 148 145 147 151 150 146 140 136 135 132 130 130 129 128 126 123 122 122 121 123 128 130 131 133 132 136 150 159 163 167 171 178 187 193 195 196 191 180 174 174 176 182 183 177 177
285 277 265 236 216 217 217 172 100 90 122 160 166 118 115 100 60 34 350 3 23 5 343 332 326 325 316 291 280 274 262 240 213 196 203 209 199 168 142 136 138 139 140 140 136 132 132 130 126 124 122 118 115 116 117 120 120 119 119 122 126 129 131 132 132 131 138 153 163 169 172 173 179 188 192 193 192 185 178 181 183 185 189 189 184 187
311 310 309 286 208 158 100 97 103 108 114 116 111 107 108 97 80 65 49 38 29 20 8 347 334 334 317 276 261 261 257 228 186 166 158 163 155 135 123 123 127 127 126 123 119 120 123 122 116 111 107 103 104 108 111 116 118 119 122 127 129 130 131 131 130 131 139 152 161 168 173 176 182 187 187 188 190 187 186 190 189 186 189 191 193 200
308 311 312 287 218 192 154 120 112 111 109 108 105 96 86 83 76 67 62 55 41 32 30 23 5 355 352 358 121 120 109 113 130 125 111 101 104 107 107 112 117 117 116 113 112 112 112 109 104 101 99 100 105 110 113 116 118 121 127 131 131 131 131 130 131 133 139 148 156 165 177 182 180 182 184 186 192 197 195 193 190 189 191 192 197 204
320 328 331 308 263 221 107 101 104 105 95 86 88 85 79 80 77 68 62 58 51 44 47 55 43 12 11 46 68 80 89 91 97 103 100 93 86 86 91 99 104 105 103 100 99 100 99 97 96 97 96 97 102 107 112 116 120 126 132 133 132 133 133 131 133 135 140 149 155 164 180 184 175 177 183 182 188 198 194 188 193 198 198 198 201 205
304 328 335 314 299 37 39 72 115 115 99 84 81 76 66 68 73 71 65 57 52 46 44 52 59 54 44 54 64 74 83 88 92 94 93 87 81 80 83 88 90 90 90 89 87 89 92 95 96 96 96 96 98 101 105 108 114 123 129 130 132 135 135 133 136 141 148 156 162 167 180 185 181 185 183 170 166 171 168 175 196 202 196 198 206 211
308 352 337 308 237 92 10 326 142 120 104 91 77 65 60 60 63 68 65 55 46 43 38 35 40 48 48 47 51 60 67 68 72 78 79 71 65 66 70 74 77 78 80 84 87 88 91 95 98 100 101 103 105 107 109 111 115 121 124 127 134 137 134 135 143 152 157 165 175 177 179 184 186 186 175 162 160 156 144 149 177 185 179 188 202 212
352 6 342 346 58 59 307 283 59 66 90 87 63 44 45 51 56 65 67 58 45 40 39 31 25 28 35 38 38 42 47 50 54 60 62 58 53 54 59 66 73 79 82 83 86 90 91 93 97 100 102 107 111 113 116 119 122 125 127 131 136 137 136 141 153 163 168 177 181 173 172 182 187 180 165 158 159 154 140 132 134 143 151 156 166 185